Vorticity
16 22 29 42 -8 22 29 26 14 28 2 6 5 3 6 7 7 5 2 11 5 12
14 -9 24 48 33 -11 11 -2 -22 17 -3 -2 9 4 5 5 26 12 -7 10 1 8
14 5 22 -12 10 17 11 10 -0 20 22 13 16 8 3 2 -0 -1 1 14 7 4
25 42 2 29 29 41 -3 28 8 -23 27 -8 1 10 5 4 4 4 -0 8 8 5
-12 32 9 24 9 3 46 -31 -13 18 -0 -8 7 7 3 3 5 5 5 5 8 6
25 1 -6 20 11 12 14 3 22 9 -0 20 21 19 5 10 6 5 4 5 6 7
42 34 7 20 -11 20 14 -6 -39 15 -2 32 25 10 8 15 1 4 5 5 5 6
33 30 4 13 -10 54 7 2 30 -23 -13 5 9 8 23 23 11 5 2 4 8 7
12 25 57 -12 -4 5 42 2 9 26 -6 -19 6 -5 40 17 5 8 15 6 6 6
15 16 30 32 -4 7 4 32 17 7 8 18 -35 3 -4 9 2 18 9 4 -2 9
14 23 13 38 35 6 13 13 8 38 10 6 36 19 -0 11 23 2 2 28 3 6
9 18 23 12 23 25 11 7 -6 12 28 18 18 -20 15 -17 18 3 15 15 13 7
15 7 33 15 28 40 31 9 7 12 2 7 12 23 24 11 -15 20 9 5 6 16
24 7 23 25 13 18 30 38 14 16 5 10 -2 8 12 5 -3 6 -2 4 5 16
Height
5515 5528 5544 5557 5572 5585 5593 5604 5616 5625 5636 5646 5654 5664 5671 5676 5685 5692 5698 5705 5710 5715
5496 5505 5523 5536 5548 5564 5576 5589 5600 5609 5619 5631 5640 5650 5658 5665 5671 5682 5687 5693 5698 5704
5477 5488 5503 5514 5527 5544 5562 5572 5585 5595 5603 5613 5624 5636 5645 5652 5659 5667 5675 5681 5687 5692
5460 5470 5481 5496 5510 5526 5542 5557 5568 5579 5588 5598 5609 5621 5629 5638 5647 5653 5662 5668 5676 5682
5441 5452 5465 5476 5489 5507 5523 5538 5550 5565 5573 5582 5593 5603 5614 5623 5634 5642 5649 5656 5663 5671
5423 5436 5448 5459 5471 5489 5505 5520 5536 5550 5557 5567 5575 5586 5597 5608 5618 5629 5637 5643 5651 5659
5410 5421 5432 5445 5455 5468 5486 5498 5514 5531 5541 5551 5560 5570 5580 5591 5602 5613 5622 5631 5639 5646
5398 5405 5417 5429 5439 5452 5468 5482 5495 5510 5523 5535 5546 5555 5565 5574 5585 5597 5607 5617 5627 5635
5386 5392 5402 5416 5428 5437 5449 5465 5478 5491 5504 5519 5529 5540 5549 5559 5571 5582 5593 5603 5612 5621
5377 5383 5389 5399 5412 5422 5436 5447 5460 5473 5486 5498 5513 5524 5534 5544 5555 5567 5578 5589 5598 5608
5370 5373 5379 5387 5397 5409 5421 5433 5444 5455 5468 5483 5498 5510 5518 5529 5541 5552 5561 5572 5584 5594
5361 5365 5370 5377 5383 5392 5404 5419 5431 5440 5453 5464 5477 5491 5503 5517 5528 5539 5548 5559 5570 5581
5352 5356 5358 5362 5369 5379 5389 5402 5416 5427 5438 5451 5462 5473 5488 5500 5514 5526 5537 5547 5556 5566
5344 5346 5349 5352 5359 5367 5376 5389 5403 5416 5427 5438 5448 5457 5471 5485 5497 5509 5522 5532 5543 5551